Home   Weather   Irvine   Past weeks

Flag for USA Past Weather in Irvine, California, USA — Yesterday and Last 2 Weeks

Now
92 °F

Sunny.


Feels Like: 88 °F
Forecast: 68 / 96 °F
Wind: 9 mph from West

Location: John Wayne Airport-Orange County Airport

Current Time: Sep 25, 2016 at 5:22:50 PM

Latest Report: Sep 25, 2016 at 4:53 PM


Visibility: 10 mi

Pressure: 29.86 "Hg

Humidity: 18%

Dew Point: 43 °F

Location of IrvineLocation

Past Weather in Irvine — Graph

°F

Irvine Temperature Yesterday

Maximum temperature yesterday: 83 °F (at 12:53 PM)
Minimum temperature yesterday: 61 °F (at 4:53 AM)
Average temperature yesterday: 72 °F

High & Low Weather Summary for the Past Weeks

 TemperatureHumidityPressure
High101 °F (Sep 25, 12:53 PM)97% (Sep 19, 6:53 AM)30.08 "Hg (Sep 19, 6:53 AM)
Low60 °F (Sep 15, 4:53 AM)8% (Sep 25, 12:53 PM)29.82 "Hg (Sep 21, 4:53 PM)
Average70 °F67%29.94 "Hg
* Reported Sep 10 3:53 PM — Sep 25 3:53 PM, Irvine, Weather by CustomWeather, © 2016

Note: Actual official high and low records may vary slightly from our data, if they occured in-between our weather recording intervals... More about our weather records

Advertising

Irvine Weather History for the Previous 24 Hours

Scroll right to see more
 ConditionsComfort  
Time TempWeatherWind HumidityBarometerVisibility
3:53 PM
Sun, Sep 25
94 °FSunny.8 mph17%29.88 "Hg10 mi
2:53 PM96 °FSunny.8 mph14%29.88 "Hg10 mi
1:53 PM93 °FSunny.8 mph16%29.91 "Hg10 mi
12:53 PM101 °FSunny.14 mph8%29.93 "Hg10 mi
11:53 AM97 °FSunny.7 mph12%29.96 "Hg10 mi
10:53 AM86 °FSunny.5 mph29%29.99 "Hg10 mi
9:53 AM79 °FSunny.No wind35%30.00 "Hg10 mi
8:53 AM72 °FSunny.3 mph43%30.00 "Hg10 mi
7:53 AM67 °FSunny.No wind49%30.01 "Hg10 mi
6:53 AM63 °FSunny.No wind54%29.98 "Hg10 mi
5:53 AM63 °FClear.No wind58%29.97 "Hg10 mi
4:53 AM64 °FClear.No wind56%29.96 "Hg10 mi
3:53 AM64 °FClear.No wind63%29.95 "Hg10 mi
2:53 AM66 °FClear.No wind56%29.96 "Hg10 mi
1:53 AM67 °FClear.No wind59%29.96 "Hg10 mi
12:53 AM68 °FClear.No wind55%29.96 "Hg10 mi
11:53 PM
Sat, Sep 24
69 °FClear.No wind55%29.97 "Hg10 mi
10:53 PM70 °FClear.3 mph51%29.96 "Hg10 mi
9:53 PM72 °FClear.3 mph48%29.97 "Hg10 mi
8:53 PM73 °FClear.3 mph44%29.96 "Hg10 mi
7:53 PM76 °FPassing clouds.6 mph36%29.95 "Hg10 mi
6:53 PM80 °FPassing clouds.No wind31%29.93 "Hg10 mi
5:53 PM81 °FPassing clouds.6 mph30%29.93 "Hg10 mi
Weather by CustomWeather, © 2016

See weather overviewHow to use our weather pages